KZ1X Weather Reports


Display with metric or nautical units.
time (UTC)temp
F
wind
direction
speed
MPH
gust
MPH
rain 1hr
in
rain 24hr
in
rain mn
in
humidity
%
barometer
mb
20260831190052 92 75 0.0 2.0 0.00 0.00 0.00 58 1019.1
20260831184549 92 0 0.0 3.0 0.00 0.00 0.00 57 1019.3
20260831183046 93 0 0.0 3.0 0.00 0.00 0.00 58 1019.5
20260831181546 93 0 0.0 2.0 0.00 0.00 0.00 58 1019.9
20260831180049 93 0 0.0 1.0 0.00 0.00 0.00 59 1020.0
20260831174550 91 224 0.0 2.0 0.00 0.00 0.00 65 1020.1
20260831173048 90 0 0.0 1.0 0.00 0.00 0.00 63 1020.2
20260831171546 89 0 0.0 2.0 0.00 0.00 0.00 65 1020.3
20260831170041 89 0 1.0 2.0 0.00 0.00 0.00 64 1020.6
20260831164547 88 0 0.0 2.0 0.00 0.00 0.00 73 1020.5
20260831163046 87 102 0.0 3.0 0.00 0.00 0.00 70 1020.4
20260831161549 87 0 0.0 2.0 0.00 0.00 0.00 76 1020.7
20260831160049 87 0 0.0 1.0 0.00 0.00 0.00 73 1020.7
20260831154622 86 0 0.0 2.0 0.00 0.00 0.00 76 1020.9
20260831153044 84 0 0.0 1.0 0.00 0.00 0.00 82 1021.0
20260831151607 83 231 0.0 1.0 0.00 0.00 0.00 83 1021.1
20260831150049 81 0 0.0 2.0 0.00 0.00 0.00 85 1021.2
20260831144547 80 70 1.0 2.0 0.00 0.00 0.00 86 1021.1
20260831143043 79 143 0.0 3.0 0.00 0.00 0.00 89 1020.9
20260831141544 77 0 0.0 3.0 0.00 0.00 0.00 91 1020.8
20260831140047 76 286 0.0 4.0 0.00 0.00 0.00 96 1020.8
20260831134557 74 0 0.0 2.0 0.00 0.00 0.00 100 1020.7
20260831133048 73 0 0.0 0.0 0.00 0.00 0.00 100 1020.7
20260831131547 72 0 0.0 0.0 0.00 0.00 0.00 100 1020.6
20260831130106 72 0 0.0 0.0 0.00 0.00 0.00 100 1020.6
20260831124551 70 0 0.0 0.0 0.00 0.00 0.00 100 1020.8
20260831123050 69 0 0.0 0.0 0.00 0.00 0.00 100 1021.0
20260831121546 67 0 0.0 0.0 0.00 0.00 0.00 99 1020.8
20260831120051 67 0 0.0 0.0 0.00 0.00 0.00 99 1020.8
20260831114548 66 0 0.0 0.0 0.00 0.00 0.00 99 1020.8
20260831113048 66 0 0.0 0.0 0.00 0.00 0.00 99 1020.8
20260831111541 66 0 0.0 0.0 0.00 0.00 0.00 99 1020.7
20260831110049 66 0 0.0 0.0 0.00 0.00 0.00 99 1020.5
20260831104546 66 0 0.0 0.0 0.00 0.00 0.00 99 1020.4
20260831103052 66 0 0.0 0.0 0.00 0.00 0.00 99 1020.3
20260831101543 66 0 0.0 0.0 0.00 0.00 0.00 99 1020.4
20260831100104 66 0 0.0 0.0 0.00 0.00 0.00 99 1020.5
20260831094548 66 0 0.0 0.0 0.00 0.00 0.00 99 1020.5
20260831093049 66 0 0.0 0.0 0.00 0.00 0.00 99 1020.3
20260831091557 66 0 0.0 0.0 0.00 0.00 0.00 99 1020.2
20260831090051 67 0 0.0 0.0 0.00 0.00 0.00 99 1020.1
20260831084550 67 0 0.0 0.0 0.00 0.00 0.00 99 1020.1
20260831083044 67 0 0.0 0.0 0.00 0.00 0.00 99 1020.2
20260831081551 67 0 0.0 0.0 0.00 0.00 0.00 99 1020.4
20260831080050 67 0 0.0 0.0 0.00 0.00 0.00 99 1020.3
20260831074548 67 0 0.0 0.0 0.00 0.00 0.00 99 1020.2
20260831073043 68 0 0.0 0.0 0.00 0.00 0.00 99 1020.3
20260831071606 68 0 0.0 0.0 0.00 0.00 0.00 99 1020.5
20260831070050 67 0 0.0 0.0 0.00 0.00 0.00 99 1020.4
20260831064545 67 0 0.0 0.0 0.00 0.00 0.00 99 1020.5
20260831063048 68 0 0.0 0.0 0.00 0.00 0.00 99 1020.7
20260831061548 68 0 0.0 0.0 0.00 0.00 0.00 98 1020.5
20260831060058 68 0 0.0 0.0 0.00 0.00 0.00 98 1020.6
20260831054546 68 0 0.0 0.0 0.00 0.00 0.00 98 1020.5
20260831053053 68 0 0.0 0.0 0.00 0.00 0.00 98 1020.7
20260831051544 69 0 0.0 0.0 0.00 0.00 0.00 98 1020.6
20260831050052 69 0 0.0 0.0 0.00 0.00 0.00 98 1020.8
20260831044551 69 0 0.0 0.0 0.00 0.00 0.00 98 1020.7
20260831043049 69 0 0.0 0.0 0.00 0.00 0.00 98 1020.8
20260831041551 69 0 0.0 0.0 0.00 0.00 0.00 98 1020.7
20260831040049 70 0 0.0 0.0 0.00 0.00 0.00 98 1020.8
20260831034547 70 0 0.0 0.0 0.00 0.00 0.00 98 1020.9
20260831033051 70 0 0.0 0.0 0.00 0.00 0.00 98 1020.9
20260831031548 70 0 0.0 0.0 0.00 0.00 0.00 98 1020.7
20260831030049 70 0 0.0 0.0 0.00 0.00 0.00 98 1020.9
20260831024554 71 0 0.0 0.0 0.00 0.00 0.00 98 1021.0
20260831023044 71 0 0.0 0.0 0.00 0.00 0.00 97 1021.0
20260831021548 71 0 0.0 0.0 0.00 0.00 0.00 97 1020.9
20260831020109 72 0 0.0 0.0 0.00 0.00 0.00 97 1020.7
20260831014547 72 0 0.0 0.0 0.00 0.00 0.00 97 1020.8
20260831013043 72 0 0.0 0.0 0.00 0.00 0.00 96 1020.7
20260831011602 72 0 0.0 0.0 0.00 0.00 0.00 96 1020.5
20260831010049 73 0 0.0 0.0 0.00 0.00 0.00 96 1020.4
20260831004551 73 0 0.0 0.0 0.00 0.00 0.00 95 1020.4
20260831003042 74 0 0.0 0.0 0.00 0.00 0.00 94 1020.3
20260831001550 74 0 0.0 0.0 0.00 0.00 0.00 92 1020.4
20260831000050 75 0 0.0 0.0 0.00 0.00 0.00 91 1020.3
20260830234548 76 0 0.0 0.0 0.00 0.00 0.00 89 1020.1
20260830233049 77 0 0.0 0.0 0.00 0.00 0.00 87 1020.4
20260830231550 77 0 0.0 0.0 0.00 0.00 0.00 85 1020.6
20260830230049 78 0 0.0 0.0 0.00 0.00 0.00 84 1020.4
20260830224544 79 0 0.0 0.0 0.00 0.00 0.00 85 1020.6
20260830223052 79 0 0.0 0.0 0.00 0.00 0.00 86 1020.5
20260830221550 80 0 0.0 0.0 0.00 0.00 0.00 86 1020.4
20260830214550 81 0 0.0 0.0 0.00 0.00 0.00 85 1020.3
20260830213050 82 0 0.0 0.0 0.00 0.00 0.00 84 1020.1
20260830211556 82 0 0.0 0.0 0.00 0.00 0.00 82 1020.3
20260830210057 83 0 0.0 0.0 0.00 0.00 0.00 80 1020.4
20260830204555 84 0 0.0 0.0 0.00 0.00 0.00 80 1020.4
20260830203051 81 0 0.0 0.0 0.00 0.00 0.00 87 1020.6
20260830201552 81 0 0.0 0.0 0.00 0.00 0.00 86 1020.7
20260830200048 82 0 0.0 0.0 0.00 0.00 0.00 81 1020.9
20260830194545 84 0 0.0 0.0 0.00 0.00 0.00 78 1021.2
20260830193044 83 0 0.0 1.0 0.00 0.00 0.00 80 1021.4
20260830191548 83 0 0.0 0.0 0.00 0.00 0.00 80 1021.6